{"data":{"norad_id":56460,"epoch":"2026-05-25T04:06:28.566144Z","epoch_age_seconds":59983,"freshness":"FRESH","line1":"1 56460U 23064N   26145.17116396  .00000182  00000+0  23020-4 0  9999","line2":"2 56460  69.9991 311.5600 0002791 267.2926  92.7913 14.98337764166708","mean_motion":14.98337764,"eccentricity":0.0002791,"inclination_deg":69.9991,"raan_deg":311.56,"arg_perigee_deg":267.2926,"mean_anomaly_deg":92.7913,"bstar":2.302e-5,"rev_number":16670,"period_min":96.106501124002,"perigee_km":570.09208938372,"apogee_km":573.97167365338,"semimajor_km":6950.1688815185,"source":"CELESTRAK","updated_at":"2026-05-25T13:38:18.068568Z"}}